Tracking 17884 objects as of 2-December-2016
HD Live streaming from Space Station
objects crossing your sky now

CRRES DEB (CANISTER)

Track CRRES DEB (CANISTER) now!


NORAD ID: 21590
Int'l Code: 1990-065F
Perigee: 317.5 km
Apogee: 31,274.8 km
Inclination: 20.1 °
Period: 547.4 minutes
Semi major axis: 22167 km
RCS: 0.1267 m2 (medium)
Launch date: July 25, 1990
Source: United States (US)
Launch site: AIR FORCE EASTERN TEST RANGE (AFETR)

Note: This is SATELLITE DEBRIS
Your satellite tracking list
Your tracking list is empty





NASA's NSSDC Master Catalog

Two Line Element Set (TLE):
1 21590U 90065F   16336.62245997  .00000452  00000-0  26508-3 0  9995
2 21590  20.0650 139.7204 6982686 275.6128  15.1754  2.63050792228261
Source of the keplerian elements: AFSPC